Total_Precipitation_Accumulation
0.00 0.00 0.00 0.00 0.00 0.01 0.02 0.02 0.03 0.03 0.03 0.05 0.07 0.10 0.13 0.18 0.22 0.25 0.26 0.27 0.28 0.28 0.28 0.31 0.33 0.37 0.43 0.43 0.42 0.42 0.40 0.45 0.44 0.13 0.05 0.07 0.13 0.18 0.19 0.18 0.16 0.15 0.18
0.00 0.00 0.00 0.00 0.01 0.02 0.04 0.06 0.06 0.06 0.07 0.09 0.12 0.16 0.20 0.23 0.26 0.33 0.36 0.37 0.42 0.41 0.38 0.37 0.39 0.41 0.45 0.48 0.51 0.49 0.43 0.40 0.45 0.28 0.08 0.07 0.13 0.19 0.23 0.25 0.24 0.20 0.16
0.00 0.00 0.00 0.00 0.01 0.03 0.06 0.10 0.15 0.19 0.21 0.23 0.26 0.31 0.38 0.41 0.43 0.46 0.50 0.58 0.64 0.63 0.60 0.59 0.54 0.52 0.55 0.52 0.54 0.54 0.49 0.42 0.39 0.35 0.19 0.12 0.15 0.21 0.28 0.31 0.32 0.29 0.23
0.00 0.00 0.00 0.01 0.04 0.06 0.09 0.15 0.24 0.34 0.41 0.46 0.50 0.54 0.59 0.67 0.78 0.83 0.81 0.81 0.81 0.78 0.77 0.77 0.76 0.75 0.74 0.71 0.69 0.62 0.58 0.56 0.48 0.43 0.31 0.23 0.23 0.26 0.35 0.39 0.40 0.37 0.33
0.01 0.01 0.02 0.05 0.10 0.17 0.20 0.23 0.31 0.40 0.48 0.52 0.53 0.55 0.59 0.81 1.15 1.27 1.11 0.90 0.76 0.72 0.71 0.72 0.79 0.90 0.95 0.99 1.03 0.89 0.76 0.76 0.70 0.62 0.49 0.37 0.32 0.35 0.42 0.46 0.54 0.50 0.45
0.02 0.03 0.06 0.11 0.18 0.25 0.29 0.32 0.39 0.45 0.48 0.47 0.48 0.48 0.50 0.67 1.07 1.21 0.93 0.65 0.52 0.55 0.60 0.58 0.60 0.72 0.79 0.85 0.97 0.98 0.98 1.04 1.03 0.92 0.76 0.62 0.47 0.43 0.48 0.60 0.68 0.74 0.67
0.04 0.06 0.10 0.13 0.17 0.20 0.23 0.28 0.33 0.31 0.27 0.29 0.35 0.34 0.34 0.45 0.81 0.94 0.66 0.36 0.26 0.31 0.40 0.43 0.44 0.51 0.63 0.65 0.68 0.69 0.77 0.89 1.06 1.13 1.09 0.87 0.68 0.58 0.63 0.71 0.74 0.80 0.75
0.04 0.07 0.10 0.12 0.16 0.14 0.13 0.17 0.20 0.17 0.16 0.19 0.21 0.18 0.15 0.23 0.56 0.75 0.53 0.23 0.16 0.21 0.29 0.34 0.34 0.38 0.51 0.68 0.74 0.62 0.55 0.66 0.89 1.07 1.20 1.06 0.89 0.83 0.93 1.01 1.00 0.97 0.93
0.04 0.05 0.07 0.10 0.14 0.12 0.10 0.11 0.14 0.14 0.13 0.12 0.11 0.08 0.06 0.10 0.38 0.70 0.55 0.21 0.17 0.16 0.21 0.29 0.28 0.26 0.42 0.57 0.62 0.56 0.46 0.50 0.60 0.82 0.96 0.97 0.93 0.97 1.10 1.31 1.38 1.39 1.34
0.02 0.03 0.03 0.04 0.06 0.05 0.04 0.03 0.04 0.06 0.06 0.06 0.04 0.04 0.03 0.04 0.20 0.62 0.68 0.30 0.21 0.16 0.17 0.22 0.31 0.31 0.40 0.46 0.47 0.49 0.51 0.48 0.42 0.43 0.50 0.57 0.66 0.76 0.97 1.23 1.38 1.47 1.45
0.00 0.00 0.00 0.00 0.01 0.01 0.02 0.02 0.02 0.03 0.03 0.03 0.03 0.03 0.02 0.03 0.07 0.39 0.77 0.54 0.32 0.22 0.20 0.25 0.26 0.30 0.34 0.36 0.39 0.45 0.56 0.46 0.36 0.38 0.39 0.42 0.51 0.62 0.77 1.00 1.25 1.41 1.48
0.00 0.00 0.00 0.00 0.01 0.01 0.02 0.02 0.02 0.03 0.04 0.04 0.04 0.03 0.03 0.03 0.06 0.24 0.51 0.64 0.48 0.29 0.27 0.20 0.20 0.22 0.24 0.27 0.30 0.36 0.35 0.35 0.39 0.39 0.37 0.38 0.45 0.55 0.67 0.80 1.02 1.23 1.34
0.00 0.00 0.00 0.01 0.01 0.02 0.02 0.03 0.03 0.04 0.06 0.08 0.07 0.06 0.05 0.05 0.09 0.22 0.26 0.31 0.40 0.35 0.35 0.32 0.20 0.17 0.18 0.17 0.19 0.24 0.26 0.29 0.38 0.38 0.34 0.33 0.40 0.51 0.57 0.66 0.76 0.96 1.12
0.00 0.01 0.01 0.01 0.02 0.02 0.03 0.04 0.05 0.08 0.19 0.23 0.18 0.15 0.11 0.10 0.20 0.36 0.27 0.17 0.22 0.29 0.31 0.27 0.18 0.15 0.14 0.11 0.09 0.12 0.17 0.23 0.29 0.32 0.29 0.27 0.30 0.38 0.49 0.61 0.72 0.83 1.01
0.01 0.01 0.01 0.02 0.03 0.03 0.04 0.04 0.06 0.09 0.27 0.40 0.31 0.31 0.30 0.32 0.40 0.50 0.42 0.37 0.35 0.36 0.34 0.29 0.21 0.17 0.17 0.15 0.11 0.09 0.11 0.16 0.21 0.23 0.24 0.27 0.30 0.36 0.43 0.52 0.68 0.79 0.95
0.01 0.02 0.02 0.04 0.04 0.04 0.05 0.05 0.05 0.08 0.14 0.17 0.19 0.28 0.29 0.39 0.42 0.36 0.35 0.37 0.36 0.35 0.35 0.32 0.21 0.15 0.14 0.13 0.12 0.11 0.09 0.11 0.15 0.19 0.22 0.25 0.29 0.34 0.40 0.45 0.58 0.73 0.85
0.02 0.03 0.05 0.05 0.05 0.06 0.07 0.09 0.10 0.07 0.06 0.07 0.09 0.14 0.24 0.31 0.29 0.26 0.29 0.28 0.27 0.26 0.28 0.22 0.15 0.14 0.13 0.12 0.11 0.11 0.10 0.08 0.10 0.16 0.18 0.19 0.22 0.28 0.34 0.40 0.47 0.59 0.74
0.02 0.03 0.06 0.06 0.07 0.09 0.11 0.12 0.14 0.14 0.11 0.06 0.05 0.07 0.14 0.21 0.21 0.20 0.23 0.25 0.21 0.18 0.18 0.16 0.15 0.13 0.12 0.12 0.12 0.11 0.10 0.09 0.11 0.13 0.14 0.15 0.18 0.25 0.29 0.33 0.39 0.51 0.63
0.02 0.04 0.07 0.08 0.08 0.10 0.12 0.14 0.14 0.14 0.13 0.10 0.07 0.07 0.09 0.12 0.13 0.12 0.15 0.20 0.18 0.14 0.12 0.12 0.11 0.11 0.11 0.11 0.11 0.11 0.12 0.11 0.10 0.11 0.12 0.13 0.15 0.20 0.25 0.26 0.32 0.41 0.54
0.03 0.05 0.08 0.09 0.10 0.12 0.14 0.16 0.16 0.17 0.16 0.14 0.11 0.10 0.16 0.20 0.18 0.13 0.14 0.16 0.16 0.13 0.11 0.10 0.09 0.09 0.11 0.12 0.12 0.13 0.13 0.12 0.11 0.12 0.12 0.11 0.12 0.15 0.20 0.22 0.27 0.35 0.45
0.04 0.05 0.08 0.10 0.12 0.14 0.18 0.20 0.21 0.22 0.21 0.17 0.12 0.11 0.27 0.33 0.23 0.15 0.14 0.14 0.15 0.15 0.13 0.11 0.10 0.10 0.11 0.12 0.13 0.13 0.13 0.11 0.10 0.11 0.11 0.10 0.10 0.12 0.14 0.18 0.22 0.28 0.37
0.07 0.08 0.11 0.14 0.15 0.18 0.21 0.22 0.23 0.23 0.21 0.19 0.14 0.11 0.17 0.20 0.17 0.15 0.14 0.13 0.12 0.13 0.14 0.15 0.13 0.12 0.14 0.17 0.18 0.17 0.14 0.12 0.10 0.10 0.10 0.10 0.10 0.10 0.11 0.14 0.17 0.23 0.31
0.11 0.14 0.14 0.14 0.16 0.19 0.19 0.17 0.19 0.21 0.20 0.18 0.16 0.16 0.15 0.15 0.14 0.14 0.14 0.12 0.12 0.12 0.12 0.15 0.15 0.13 0.13 0.15 0.16 0.19 0.19 0.14 0.11 0.12 0.13 0.11 0.10 0.09 0.10 0.12 0.15 0.21 0.28
0.14 0.14 0.15 0.16 0.18 0.20 0.20 0.19 0.19 0.21 0.21 0.20 0.19 0.17 0.15 0.14 0.13 0.12 0.12 0.11 0.12 0.12 0.12 0.15 0.16 0.15 0.15 0.17 0.16 0.15 0.16 0.15 0.16 0.15 0.14 0.13 0.12 0.10 0.11 0.13 0.14 0.18 0.25
0.11 0.14 0.16 0.20 0.22 0.23 0.24 0.23 0.21 0.22 0.22 0.22 0.20 0.17 0.15 0.13 0.12 0.11 0.10 0.11 0.12 0.12 0.12 0.14 0.17 0.17 0.17 0.17 0.18 0.18 0.17 0.19 0.23 0.27 0.32 0.34 0.28 0.21 0.18 0.18 0.17 0.18 0.23
0.11 0.14 0.19 0.23 0.26 0.27 0.30 0.30 0.27 0.26 0.26 0.23 0.20 0.18 0.16 0.15 0.13 0.12 0.12 0.14 0.17 0.16 0.14 0.14 0.15 0.18 0.18 0.17 0.17 0.19 0.21 0.25 0.33 0.45 0.56 0.55 0.39 0.25 0.20 0.20 0.19 0.20 0.24